Showing default

ASTROSAT, 40930

Orbit data source: Space-Track

ASTROSAT, 40930 is a payload satellite owned by ISRO (IN) in LEO that was launched on Mon, 28 Sep 2015 UTC via a PSLV-XL launch vehicle from the Sirharikota (SRI). Payload-class satellites include a variety of spacecraft equipped with specific instruments for various scientific and technological missions. These include communications satellites like Starlink; space stations such as the ISS; scientific satellites like the Hubble; Earth observation satellites from companies like Planet Labs, Umbra, and HawkEye 360; GPS; miniature CubeSats for education and research; and military/defense satellites.

Not visible in the next 10 days
Identifier
40930, 2015-052A
Orbit
LEO
Country
Flag of ININ / IND
Related business
Manufacturer
ISRO SAC/Banga
Mission
Operational Civil Astronomy
Bus & Motor
ASTROSAT, AOCS
Mass
1,513 kg wet, 1,470 kg dry
Launch date (UTC)
2015-09-28 (10 years ago)
Launch vehicle
PSLV-XL
Launch site
Sirharikota (SRI)
Object type
Payload
Rocket body
Debris
Shape & HBR
Box + 2 Pan, 3.5 m
Radar Cross Section
5.447 m², Large (>1 m²)

Expand to show TLE details & history
Last TLE update: 15 hours ago

TLE from 15 hours ago
0 ASTROSAT
1 40930U 15052A   26072.69189029  .00002271  00000-0  19554-3 0  9999
2 40930   5.9965 122.6344 0007493 112.1131 247.9792 14.82312125565631
Epoch: 2026-03-13T16:36Z
TLE epoch observation values (Epoch: 2026-03-13T16:36:19.321Z)
Latitude
-0.00001°
Longitude
62.23006°
Altitude
620.942 km
Speed
7.551 km/s
True Right ascension
08h 10m 32s
True Declination
0° 00' 00"
Sunlit
Object was in full shadow at epoch
Visualization orbit readout
Latitude
Unknown
Longitude
Unknown
Altitude
Unknown
Speed
Unknown
Apparent Right ascension
Unknown
Apparent Declination
Unknown
Sunlit
N/A
Visualization observer readout
Local Sidereal Time
12:04:38
Azimuth
Unknown
Elevation
Unknown
Doppler factor
Unknown
Orbital elements
Apogee altitude
633.482 km
Perigee altitude
622.982 km
Semi-major axis
7,006.369 km
Eccentricity
0.00075
Inclination
5.9965°
RAAN
122.6344°
Arg. of periapsis
112.1131°
True anomaly
247.89963°
Mean anomaly
247.9792°
Eccentric anomaly
247.93941°
Mean motion
3.70087 °/min
Orbital period
97.27 mins
BSTAR
0.00019554
Loading maneuver chart data...
Computing Atmospheric mass density...
Loading historical data...
Loading historical data...
Loading historical data...
Loading historical data...
Loading historical data...
Loading historical data...
Loading historical data...

Documentation

Showing up to 5 results
|